DCMPY LFKJ-EDDM

Flight info

Callsign DCMPY
Flight time 1h 3m
Altitude 40000
Route TORTU DCT GOLAS DCT NESTI DCT SOTOV T101 BETOS BETOS1A
Aircraft LJ35/M-SGHRWXY/SB1

Departure

Time 2026-05-09 15:02
Airport Ajaccio Napoléon Bonaparte airport (LFKJ)

Arrival

Time 2026-05-09 16:05
Airport Munich Airport (EDDM)
Time Latitude Longitude Altitude Speed Heading
2026-05-09 14:50 41.92198 8.79362 15 ft 0 kts
2026-05-09 14:58 41.92205 8.79378 15 ft 7 kts 80°
2026-05-09 14:58 41.92220 8.79471 15 ft 13 kts 58°
2026-05-09 14:58 41.92297 8.79523 15 ft 11 kts
2026-05-09 14:59 41.92308 8.79620 15 ft 16 kts 96°
2026-05-09 14:59 41.92297 8.79786 16 ft 20 kts 95°
2026-05-09 14:59 41.92351 8.79888 16 ft 15 kts 24°
2026-05-09 14:59 41.92466 8.79960 16 ft 21 kts 25°
2026-05-09 15:00 41.92613 8.80050 16 ft 26 kts 24°
2026-05-09 15:00 41.92767 8.80158 16 ft 22 kts 28°
2026-05-09 15:00 41.92880 8.80295 16 ft 23 kts 45°
2026-05-09 15:00 41.92965 8.80429 17 ft 13 kts 82°
2026-05-09 15:01 41.92877 8.80544 19 ft 0 kts 205°
2026-05-09 15:01 41.92798 8.80494 18 ft 62 kts 205°
2026-05-09 15:01 41.91999 8.79986 217 ft 176 kts 205°
2026-05-09 15:02 41.90766 8.78959 1058 ft 239 kts 223°
2026-05-09 15:02 41.89806 8.76953 1924 ft 253 kts 244°
2026-05-09 15:02 41.89152 8.74977 2697 ft 214 kts 243°
2026-05-09 15:02 41.88459 8.73279 3457 ft 201 kts 237°
2026-05-09 15:03 41.87722 8.71691 4235 ft 205 kts 236°
2026-05-09 15:03 41.86890 8.69846 5005 ft 262 kts 239°
2026-05-09 15:03 41.86413 8.67237 5793 ft 291 kts 265°
2026-05-09 15:03 41.86796 8.64835 6542 ft 242 kts 294°
2026-05-09 15:04 41.87752 8.62954 7270 ft 253 kts 311°
2026-05-09 15:04 41.89152 8.61527 8015 ft 253 kts 331°
2026-05-09 15:06 42.01550 8.66414 13448 ft 381 kts 27°
2026-05-09 15:06 42.03945 8.68076 14881 ft 388 kts 27°
2026-05-09 15:06 42.06383 8.69775 16319 ft 402 kts 27°
2026-05-09 15:06 42.08859 8.71495 17861 ft 406 kts 27°
2026-05-09 15:07 42.11396 8.73256 19276 ft 417 kts 27°
2026-05-09 15:07 42.14022 8.75083 20378 ft 432 kts 26°
2026-05-09 15:07 42.16726 8.76971 21468 ft 445 kts 26°
2026-05-09 15:07 42.19514 8.78917 22531 ft 457 kts 26°
2026-05-09 15:08 42.22379 8.80895 23519 ft 468 kts 24°
2026-05-09 15:08 42.28674 8.83236 25260 ft 473 kts
2026-05-09 15:08 42.31954 8.83598 26281 ft 473 kts
2026-05-09 15:09 42.35137 8.83956 27436 ft 440 kts
2026-05-09 15:10 42.56758 8.86405 32998 ft 447 kts 359°
2026-05-09 15:11 42.59846 8.86741 34041 ft 443 kts 359°
2026-05-09 15:11 42.62916 8.87090 34785 ft 443 kts 359°
2026-05-09 15:11 42.65992 8.87447 35484 ft 443 kts 359°
2026-05-09 15:11 42.69062 8.87800 36209 ft 442 kts 358°
2026-05-09 15:12 42.72130 8.88145 36929 ft 442 kts 358°
2026-05-09 15:12 42.75196 8.88492 37602 ft 442 kts 358°
2026-05-09 15:12 42.78260 8.88843 38268 ft 442 kts 358°
2026-05-09 15:12 42.81326 8.89195 38867 ft 442 kts 358°
2026-05-09 15:13 42.84389 8.89545 39410 ft 441 kts 358°
2026-05-09 15:13 42.87438 8.89894 39927 ft 441 kts 358°
2026-05-09 15:13 42.90547 8.90244 39974 ft 455 kts 358°
2026-05-09 15:13 42.93748 8.90602 39982 ft 468 kts 358°
2026-05-09 15:14 42.96985 8.91007 39977 ft 481 kts
2026-05-09 15:14 43.00301 8.92074 39974 ft 498 kts 13°
2026-05-09 15:14 43.06826 8.95635 39991 ft 507 kts 20°
2026-05-09 15:15 43.13288 8.99311 39992 ft 499 kts 15°
2026-05-09 15:15 43.19782 9.02670 39999 ft 501 kts 18°
2026-05-09 15:16 43.26231 9.06307 40008 ft 501 kts 17°
2026-05-09 15:16 43.32744 9.09764 39993 ft 500 kts 17°
2026-05-09 15:17 43.39167 9.13332 40003 ft 499 kts 17°
2026-05-09 15:17 43.45630 9.16840 40005 ft 499 kts 17°
2026-05-09 15:18 43.52021 9.20365 40017 ft 497 kts 17°
2026-05-09 15:18 43.58450 9.23895 40020 ft 497 kts 17°
2026-05-09 15:19 43.64866 9.27431 40029 ft 497 kts 17°
2026-05-09 15:19 43.71277 9.30981 40028 ft 496 kts 17°
2026-05-09 15:20 43.80877 9.36295 40026 ft 495 kts 17°
2026-05-09 15:21 43.87270 9.39851 40029 ft 495 kts 17°
2026-05-09 15:21 43.93657 9.43405 40029 ft 494 kts 17°
2026-05-09 15:22 44.00038 9.46970 40017 ft 494 kts 16°
2026-05-09 15:22 44.06405 9.50534 40032 ft 493 kts 16°
2026-05-09 15:23 44.12772 9.54104 40034 ft 493 kts 16°
2026-05-09 15:23 44.19133 9.57685 40041 ft 493 kts 16°
2026-05-09 15:24 44.25504 9.61272 40043 ft 494 kts 16°
2026-05-09 15:24 44.31873 9.64872 40042 ft 494 kts 16°
2026-05-09 15:25 44.38240 9.68477 40041 ft 493 kts 16°
2026-05-09 15:25 44.44559 9.72067 40039 ft 493 kts 17°
2026-05-09 15:26 44.54092 9.77493 40040 ft 493 kts 17°
2026-05-09 15:26 44.60447 9.81120 40040 ft 492 kts 17°
2026-05-09 15:27 44.66782 9.84747 40035 ft 491 kts 17°
2026-05-09 15:27 44.73111 9.88377 40035 ft 491 kts 17°
2026-05-09 15:28 44.79423 9.92006 40045 ft 489 kts 16°
2026-05-09 15:28 44.85701 9.95625 40039 ft 487 kts 16°
2026-05-09 15:29 44.91964 9.99244 40038 ft 486 kts 16°
2026-05-09 15:29 44.98220 10.02865 40041 ft 485 kts 16°
2026-05-09 15:30 45.04453 10.06484 40044 ft 484 kts 16°
2026-05-09 15:30 45.10677 10.10105 40036 ft 484 kts 16°
2026-05-09 15:31 45.16895 10.13730 40036 ft 482 kts 17°
2026-05-09 15:31 45.23089 10.17355 40030 ft 481 kts 16°
2026-05-09 15:32 45.29273 10.20974 40026 ft 481 kts 17°
2026-05-09 15:32 45.35448 10.24609 40025 ft 479 kts 17°
2026-05-09 15:33 45.41604 10.28231 40026 ft 478 kts 17°
2026-05-09 15:33 45.47753 10.31856 40025 ft 478 kts 17°
2026-05-09 15:34 45.53891 10.35491 40030 ft 477 kts 17°
2026-05-09 15:34 45.59979 10.39097 40042 ft 477 kts 17°
2026-05-09 15:35 45.66098 10.42742 40062 ft 476 kts 17°
2026-05-09 15:35 45.72220 10.46381 40109 ft 476 kts 17°
2026-05-09 15:36 45.78328 10.50038 40119 ft 475 kts 18°
2026-05-09 15:36 45.84416 10.53676 40130 ft 473 kts 17°
2026-05-09 15:37 45.90496 10.57327 40121 ft 473 kts 18°
2026-05-09 15:37 45.96550 10.60972 40145 ft 472 kts 18°
2026-05-09 15:38 46.02621 10.64626 40148 ft 474 kts 18°
2026-05-09 15:38 46.08698 10.68297 40169 ft 473 kts 17°
2026-05-09 15:39 46.14775 10.71974 40173 ft 474 kts 18°
2026-05-09 15:39 46.20855 10.75675 40178 ft 474 kts 18°
2026-05-09 15:40 46.26939 10.79372 40174 ft 475 kts 18°
2026-05-09 15:40 46.33030 10.83085 40022 ft 478 kts 17°
2026-05-09 15:41 46.36083 10.84946 39571 ft 470 kts 18°
2026-05-09 15:41 46.39069 10.86795 39120 ft 467 kts 17°
2026-05-09 15:41 46.42084 10.88641 38597 ft 472 kts 17°
2026-05-09 15:41 46.45120 10.90490 38064 ft 475 kts 17°
2026-05-09 15:42 46.48129 10.92335 37528 ft 477 kts 17°
2026-05-09 15:42 46.51189 10.94226 36990 ft 479 kts 16°
2026-05-09 15:42 46.54260 10.96121 36465 ft 480 kts 15°
2026-05-09 15:42 46.57355 10.98021 35965 ft 485 kts 15°
2026-05-09 15:43 46.60490 10.99953 35471 ft 492 kts 15°
2026-05-09 15:43 46.63644 11.01912 34985 ft 493 kts 15°
2026-05-09 15:43 46.66773 11.03858 34528 ft 487 kts 14°
2026-05-09 15:43 46.69881 11.05788 34049 ft 485 kts 14°
2026-05-09 15:44 46.71944 11.07059 33691 ft 485 kts 13°
2026-05-09 15:44 46.75054 11.08972 33162 ft 485 kts 14°
2026-05-09 15:44 46.78160 11.10901 32623 ft 485 kts 15°
2026-05-09 15:44 46.81238 11.12844 32132 ft 478 kts 15°
2026-05-09 15:45 46.84268 11.14729 31655 ft 473 kts 15°
2026-05-09 15:45 46.87294 11.16599 31153 ft 473 kts 15°
2026-05-09 15:45 46.90319 11.18487 30660 ft 473 kts 16°
2026-05-09 15:45 46.93373 11.20183 30167 ft 464 kts
2026-05-09 15:46 46.96477 11.21098 30085 ft 446 kts
2026-05-09 15:46 46.99537 11.21385 30079 ft 439 kts 354°
2026-05-09 15:46 47.02588 11.21564 29934 ft 441 kts 356°
2026-05-09 15:46 47.05726 11.21757 29184 ft 454 kts 356°
2026-05-09 15:47 47.08864 11.22000 28431 ft 448 kts 358°
2026-05-09 15:47 47.11993 11.22246 27697 ft 455 kts 358°
2026-05-09 15:47 47.15190 11.22445 26983 ft 462 kts 358°
2026-05-09 15:47 47.18401 11.22636 26285 ft 459 kts 358°
2026-05-09 15:48 47.21579 11.22854 25597 ft 455 kts 359°
2026-05-09 15:48 47.24728 11.23084 24928 ft 452 kts 359°
2026-05-09 15:48 47.27870 11.23297 24276 ft 450 kts 360°
2026-05-09 15:48 47.30979 11.23495 23627 ft 447 kts
2026-05-09 15:49 47.34084 11.23705 22878 ft 446 kts
2026-05-09 15:49 47.37180 11.23919 22137 ft 445 kts
2026-05-09 15:49 47.40268 11.24130 21421 ft 444 kts
2026-05-09 15:49 47.43303 11.24338 20709 ft 427 kts
2026-05-09 15:50 47.46233 11.24544 20027 ft 419 kts
2026-05-09 15:50 47.49146 11.24743 19349 ft 418 kts
2026-05-09 15:50 47.52049 11.24939 18679 ft 416 kts
2026-05-09 15:50 47.54933 11.25123 17970 ft 414 kts 359°
2026-05-09 15:51 47.57770 11.25115 17248 ft 412 kts 357°
2026-05-09 15:51 47.60637 11.25093 17071 ft 399 kts 358°
2026-05-09 15:51 47.63334 11.25089 17071 ft 387 kts 358°
2026-05-09 15:51 47.66102 11.25081 17065 ft 406 kts 357°
2026-05-09 15:52 47.71978 11.25089 16950 ft 427 kts
2026-05-09 15:52 47.74902 11.25808 16372 ft 423 kts 12°
2026-05-09 15:52 47.77623 11.27219 15826 ft 407 kts 19°
2026-05-09 15:53 47.80214 11.28744 15303 ft 395 kts 19°
2026-05-09 15:53 47.82750 11.30173 14786 ft 385 kts 18°
2026-05-09 15:53 47.85253 11.31527 14273 ft 380 kts 18°
2026-05-09 15:53 47.87701 11.32839 13767 ft 377 kts 16°
2026-05-09 15:54 47.90288 11.33574 13198 ft 372 kts
2026-05-09 15:54 47.92862 11.33795 12651 ft 370 kts
2026-05-09 15:54 47.95387 11.33956 12116 ft 361 kts 359°
2026-05-09 15:54 47.97854 11.33860 11586 ft 350 kts 355°
2026-05-09 15:55 48.00274 11.33628 11063 ft 348 kts 354°
2026-05-09 15:55 48.02659 11.33227 10548 ft 342 kts 348°
2026-05-09 15:55 48.04974 11.32482 10047 ft 338 kts 345°
2026-05-09 15:55 48.07028 11.31712 9493 ft 286 kts 345°
2026-05-09 15:56 48.08893 11.30974 8936 ft 270 kts 345°
2026-05-09 15:56 48.10697 11.30233 8386 ft 272 kts 344°
2026-05-09 15:56 48.12528 11.29451 7851 ft 275 kts 344°
2026-05-09 15:56 48.14366 11.28641 7327 ft 273 kts 344°
2026-05-09 15:57 48.16200 11.27994 6794 ft 267 kts 357°
2026-05-09 15:57 48.17989 11.28229 6265 ft 249 kts 11°
2026-05-09 15:57 48.19675 11.28729 5723 ft 245 kts 14°
2026-05-09 15:57 48.21329 11.29246 5196 ft 241 kts 14°
2026-05-09 15:58 48.22962 11.29767 4666 ft 239 kts 13°
2026-05-09 15:58 48.24574 11.30292 4141 ft 236 kts 14°
2026-05-09 15:58 48.26162 11.30841 4001 ft 230 kts 21°
2026-05-09 15:58 48.27465 11.32151 3995 ft 230 kts 48°
2026-05-09 15:59 48.28480 11.33994 4000 ft 230 kts 53°
2026-05-09 15:59 48.29465 11.35909 3993 ft 231 kts 54°
2026-05-09 15:59 48.30448 11.37817 4000 ft 231 kts 54°
2026-05-09 15:59 48.31293 11.39844 4000 ft 229 kts 71°
2026-05-09 16:00 48.31551 11.42201 4001 ft 230 kts 85°
2026-05-09 16:00 48.31597 11.43008 4007 ft 230 kts 85°
2026-05-09 16:00 48.31886 11.46820 4004 ft 209 kts 83°
2026-05-09 16:00 48.32044 11.48935 4000 ft 205 kts 84°
2026-05-09 16:01 48.32205 11.51025 4002 ft 191 kts 83°
2026-05-09 16:01 48.32348 11.52857 3991 ft 171 kts 84°
2026-05-09 16:01 48.32483 11.54634 3997 ft 171 kts 83°
2026-05-09 16:01 48.32627 11.56448 3927 ft 179 kts 84°
2026-05-09 16:02 48.32763 11.58272 3707 ft 172 kts 84°
2026-05-09 16:02 48.33035 11.61759 3263 ft 166 kts 83°
2026-05-09 16:02 48.33169 11.63470 3049 ft 161 kts 84°
2026-05-09 16:03 48.33288 11.65073 2837 ft 145 kts 84°
2026-05-09 16:03 48.33400 11.66520 2652 ft 141 kts 84°
2026-05-09 16:03 48.33512 11.67940 2467 ft 134 kts 84°
2026-05-09 16:03 48.33616 11.69329 2285 ft 134 kts 84°
2026-05-09 16:04 48.33722 11.70708 2102 ft 129 kts 84°
2026-05-09 16:04 48.33821 11.72005 1936 ft 123 kts 84°
2026-05-09 16:04 48.33938 11.73373 1758 ft 135 kts 83°
2026-05-09 16:04 48.34042 11.74735 1582 ft 127 kts 84°
2026-05-09 16:05 48.34133 11.75996 1463 ft 111 kts 84°
2026-05-09 16:05 48.34211 11.76922 1464 ft 72 kts 84°
2026-05-09 16:05 48.34278 11.77385 1461 ft 35 kts 61°
2026-05-09 16:05 48.34388 11.77666 1461 ft 31 kts 52°
2026-05-09 16:06 48.34448 11.77790 1461 ft 4 kts 54°
2026-05-09 16:06 48.34453 11.77800 1461 ft 0 kts 54°
2026-05-09 16:06 48.34454 11.77802 1461 ft 3 kts 54°
2026-05-09 16:07 48.34489 11.77869 1461 ft 12 kts 47°
2026-05-09 16:07 48.34577 11.77918 1461 ft 14 kts 354°
2026-05-09 16:07 48.34655 11.77861 1460 ft 15 kts 287°
2026-05-09 16:07 48.34648 11.77679 1461 ft 20 kts 267°
2026-05-09 16:08 48.34635 11.77484 1460 ft 13 kts 270°
2026-05-09 16:08 48.34679 11.77410 1460 ft 11 kts 356°
2026-05-09 16:08 48.34689 11.77409 1460 ft 0 kts 354°
2026-05-09 16:09 48.34705 11.77406 1460 ft 8 kts 354°
2026-05-09 16:09 48.34772 11.77378 1460 ft 12 kts 319°
2026-05-09 16:09 48.34794 11.77279 1460 ft 12 kts 263°
2026-05-09 16:10 48.34773 11.77193 1460 ft 8 kts 180°
2026-05-09 16:10 48.34734 11.77156 1460 ft 8 kts 264°
2026-05-09 16:10 48.34733 11.77146 1460 ft 0 kts 264°